Warwick, RI

6:43 AM EST on February 28, 2017 (GMT -0500)
Green State

Weather History for KPVD - May, 2012

Change the Weather History Date:

Sunday, May 6, 2012

  Actual Average Record
Temperature  
Mean Temperature 56 °F 56 °F  
Max Temperature 64 °F 66 °F 90 °F (1930)
Min Temperature 48 °F 46 °F 34 °F (1970)
Degree Days  
Heating Degree Days 9 10  
Month to date heating degree days 73 63  
Since 1 July heating degree days 4470 5413  
Cooling Degree Days 0 0  
Month to date cooling degree days 0 0  
Year to date cooling degree days 8 2  
Growing Degree Days 6 (Base 50)    
Moisture  
Dew Point 47 °F    
Average Humidity 75    
Maximum Humidity 93    
Minimum Humidity 56    
Precipitation  
Precipitation 0.00 in 0.12 in 0.98 in (1991)
Month to date precipitation 0.80 0.69  
Year to date precipitation 10.50 17.21  
Snow  
Snow 0.00 in 0.00 in T in (1917)
Month to date snowfall 0.0 0.0  
Since 1 July snowfall 17.8 33.8  
Snow Depth 0.00 in    
Sea Level Pressure  
Sea Level Pressure 30.10 in    
Wind  
Wind Speed 7 mph (ENE)    
Max Wind Speed 15 mph    
Max Gust Speed 18 mph    
Visibility 8 miles    
Events      
T = Trace of Precipitation, MM = Missing Value Source: NWS Daily Summary

Daily Weather History Graph

Daily Weather History Graph

Search for Another Location

Airport or City:

Trip Planner

Search our weather history database for the weather conditions in past years. The results will help you decide how hot, cold, wet, or windy it might be!

Date:

Astronomy

May. 06, 2012 Rise Set
Actual Time 5:35 AM EDT 7:49 PM EDT
Civil Twilight 5:04 AM EDT 8:20 PM EDT
Nautical Twilight 4:26 AM EDT 8:58 PM EDT
Astronomical Twilight 3:44 AM EDT 9:41 PM EDT
Moon 8:52 PM EDT (5/6) 5:42 AM EDT (5/6)
Length of Visible Light 15h 16m
Length of Day
14h 14m
Full, 100% of the Moon is Illuminated
May 6
Full
May 12
Last Quarter
May 20
New
May 28
First Quarter
Jun 4
Full

Hourly Weather History & Observations

Time (EDT) Temp. Dew Point Humidity Pressure Visibility Wind Dir Wind Speed Gust Speed Precip Events Conditions
12:08 AM 51.8 °F 48.2 °F 88% 30.09 in 10.0 mi NE 4.6 mph - N/A   Mostly Cloudy
12:17 AM 50.0 °F 48.2 °F 94% 30.09 in 10.0 mi NNE 4.6 mph - N/A   Mostly Cloudy
12:51 AM 51.1 °F 48.9 °F 92% 30.09 in 6.0 mi NE 5.8 mph - N/A   Overcast
1:32 AM 50.0 °F 48.2 °F 94% 30.09 in 3.0 mi NE 9.2 mph - N/A   Overcast
1:35 AM 50.0 °F 48.2 °F 94% 30.09 in 1.5 mi NE 8.1 mph - N/A   Overcast
1:51 AM 50.0 °F 48.0 °F 93% 30.09 in 1.0 mi NNE 8.1 mph - N/A   Overcast
2:06 AM 50.0 °F 48.2 °F 94% 30.08 in 2.5 mi ENE 5.8 mph - N/A   Overcast
2:14 AM 50.0 °F 48.2 °F 94% 30.08 in 3.0 mi East 5.8 mph - N/A   Overcast
2:51 AM 50.0 °F 48.0 °F 93% 30.09 in 7.0 mi NE 5.8 mph - N/A   Overcast
2:58 AM 50.0 °F 48.2 °F 94% 30.09 in 9.0 mi NNE 3.5 mph - N/A   Overcast
3:51 AM 50.0 °F 46.9 °F 89% 30.08 in 10.0 mi NNE 6.9 mph - N/A   Overcast
4:51 AM 48.9 °F 46.0 °F 90% 30.07 in 10.0 mi North 3.5 mph - N/A   Overcast
5:51 AM 48.9 °F 46.0 °F 90% 30.10 in 10.0 mi North 5.8 mph - N/A   Overcast
6:51 AM 48.9 °F 46.0 °F 90% 30.11 in 5.0 mi North 5.8 mph - N/A   Overcast
7:51 AM 50.0 °F 46.9 °F 89% 30.12 in 7.0 mi NE 5.8 mph - N/A   Overcast
8:51 AM 51.1 °F 46.0 °F 83% 30.12 in 9.0 mi NE 6.9 mph - N/A   Mostly Cloudy
9:23 AM 55.4 °F 46.4 °F 72% 30.13 in 10.0 mi NNE 4.6 mph - N/A   Mostly Cloudy
9:51 AM 57.0 °F 46.9 °F 69% 30.12 in 10.0 mi NE 5.8 mph - N/A   Mostly Cloudy
10:51 AM 57.9 °F 45.0 °F 62% 30.13 in 10.0 mi Variable 4.6 mph - N/A   Mostly Cloudy
11:51 AM 60.1 °F 46.0 °F 60% 30.12 in 10.0 mi East 9.2 mph - N/A   Mostly Cloudy
12:51 PM 59.0 °F 46.0 °F 62% 30.12 in 10.0 mi East 10.4 mph - N/A   Overcast
1:51 PM 59.0 °F 46.0 °F 62% 30.11 in 10.0 mi ESE 6.9 mph - N/A   Mostly Cloudy
2:51 PM 62.1 °F 46.0 °F 56% 30.09 in 10.0 mi ENE 5.8 mph - N/A   Mostly Cloudy
3:51 PM 63.0 °F 46.0 °F 54% 30.06 in 10.0 mi South 10.4 mph - N/A   Mostly Cloudy
4:51 PM 59.0 °F 46.0 °F 62% 30.08 in 10.0 mi SSE 10.4 mph - N/A   Mostly Cloudy
5:51 PM 57.0 °F 46.0 °F 67% 30.08 in 10.0 mi SSE 11.5 mph - N/A   Scattered Clouds
6:51 PM 55.0 °F 46.0 °F 72% 30.09 in 10.0 mi SSE 10.4 mph - N/A   Scattered Clouds
7:51 PM 55.0 °F 46.0 °F 72% 30.11 in 10.0 mi SSE 6.9 mph - N/A   Mostly Cloudy
8:51 PM 54.0 °F 46.0 °F 75% 30.12 in 10.0 mi South 6.9 mph - N/A   Scattered Clouds
9:51 PM 50.0 °F 44.1 °F 80% 30.11 in 10.0 mi SW 4.6 mph - N/A   Scattered Clouds
10:51 PM 50.0 °F 45.0 °F 83% 30.11 in 10.0 mi WSW 6.9 mph - N/A   Mostly Cloudy
11:51 PM 50.0 °F 44.1 °F 80% 30.11 in 10.0 mi Calm Calm - N/A   Partly Cloudy